Ismail Atal

Scout - CR Belouizdad
4 Apr 2027
Sonntag
Verarbeitung

Persönlichkeit

Anpassungsfähigkeit (2) Ehrgeiz (6) Kontroverse (13) Loyalität (1) Druck (3) Professionalität (5) Fairness (14) Temperament (12)

Profil

Trainerstil Demokratisch
Lizenz Kontinentale C
Entschlossenheit 10
Menschenführung 10
Motivation 11
Disziplin 10
Arbeitszufriedenheit
95%
Ermüdung
0%
Rolle Scout
Gehalt 70.7K p/W
Vertrag 14.03.2030

Leistung

Verhalten Gut
Trainingseffektivität
41%
Spielerentwicklung
45%
Verletzungsprävention
20%
Taktische Umsetzung
30%

Letzte Ereignisse

Nahm an einer Scouting-Besprechung teil jetzt
Spieler begutachtet jetzt
Nahm an einer Scouting-Besprechung teil 7T her
Spieler begutachtet 7T her
Spieler begutachtet 7T her
Spieler begutachtet 7T her
Spieler begutachtet 14T her
Spieler begutachtet 14T her

Aktuell beobachtet

143
Spieler Verein Status Fähigkeit Vertrauen Beobachtet Zuletzt beobachtet Letzte Stimme
Bernard Mensah Wa All Stars Aktiv 118 / 112 40% 1 02.04.2027 -
Bradley Mothiba SuperSport United Aktiv 101 / 102 40% 1 02.04.2027 -
Mohau Nkota Al-Ettifaq Aktiv 137 / 119 40% 5 01.04.2027 -
Ryan Stirk Chesterfield Aktiv 90 / 108 40% 1 01.04.2027 -
Mateo Fernández Angusht Aktiv 86 / 86 40% 4 30.03.2027 -
Callum Stead Barnet Aktiv 110 / 100 40% 2 30.03.2027 -
Liam Bennett Cambridge United Aktiv 116 / 95 40% 1 27.03.2027 -
Simon Ramabu Polokwane City Aktiv 100 / 106 40% 1 27.03.2027 -
Mark Helm Fleetwood Town Aktiv 118 / 97 40% 1 26.03.2027 -
Kirill Danilin Fakel Aktiv 91 / 96 40% 1 26.03.2027 -
Freddie Draper Lincoln City Aktiv 118 / 110 40% 2 23.03.2027 -
Mykola Haiduchyk Polissia Aktiv 107 / 121 40% 1 23.03.2027 -
Dilan Markanday Chesterfield Aktiv 119 / 94 40% 1 21.03.2027 -
Kyreece Lisbie Colchester United Aktiv 126 / 111 40% 1 21.03.2027 -
Ali Saleh Al Wasl Aktiv 122 / 108 40% 3 19.03.2027 -
Calum Kavanagh Oldham Athletic Aktiv 110 / 102 40% 1 19.03.2027 -
Luka Reischl ADO Den Haag Aktiv 118 / 112 40% 1 19.03.2027 -
Simone Rabbi Ravenna Aktiv 102 / 114 40% 1 19.03.2027 -
Zech Medley Fleetwood Town Aktiv 113 / 95 40% 1 18.03.2027 -
Lebogang Erasmus Platinum Stars Aktiv 109 / 112 40% 1 18.03.2027 -
Vladimir Nikolov Slavia Sofia Aktiv 117 / 115 40% 2 17.03.2027 -
Amos Inusah Wa All Stars Aktiv 104 / 108 40% 1 17.03.2027 -
Migran Ageyan Ufa Aktiv 99 / 103 40% 1 16.03.2027 -
Alessio Nepi Perugia Aktiv 108 / 101 40% 1 15.03.2027 -
Danyil Alefirenko Chornomorets Aktiv 108 / 99 40% 1 15.03.2027 -
Connor Barrett Walsall Aktiv 87 / 106 40% 1 13.03.2027 -
Matthew Smith Northampton Town Aktiv 120 / 93 40% 1 13.03.2027 -
Kwadwo Obeng Junior Heart of Lions Aktiv 93 / 86 40% 2 11.03.2027 -
Meshari Al-Nemer Al-Diriyah Aktiv 109 / 101 40% 1 11.03.2027 -
Felipe Fernández Vorskla Aktiv 104 / 98 40% 1 09.03.2027 -
Slobodan Tedić Akron Aktiv 95 / 114 40% 1 09.03.2027 -
Yaroslav Karabin Karpaty Aktiv 119 / 111 40% 1 07.03.2027 -
Fabio Abiuso Carrarese Aktiv 128 / 111 40% 1 07.03.2027 -
Solomon Tweh Al-Ra'ed Aktiv 121 / 104 40% 3 03.03.2027 -
Younes El Bahraoui Al-Taawoun Aktiv 111 / 120 40% 2 03.03.2027 -
Brian Figueroa Morelia Aktiv 117 / 111 40% 1 02.03.2027 -
Jack Currie Oxford United Aktiv 138 / 123 40% 2 01.03.2027 -
Udoka Godwin-Malife Burton Albion Aktiv 105 / 102 40% 1 01.03.2027 -
Solly Khunyedi Bloemfontein Celtic Aktiv 91 / 102 40% 1 01.03.2027 -
Jonathan Sulemana BA All Stars Aktiv 101 / 102 40% 2 26.02.2027 -
Dillon Hoogewerf ES Mostaganem Aktiv 88 / 106 40% 1 26.02.2027 -
Leandro Godoy CSKA Sofia Aktiv 122 / 122 40% 2 25.02.2027 -
Ekain Orobengoa Real Sociedad Aktiv 97 / 99 40% 1 25.02.2027 -
Hlompho Modiba Black Aces Aktiv 102 / 93 40% 1 23.02.2027 -
Louis Appéré Cambridge United Aktiv 99 / 94 40% 1 23.02.2027 -
Isaac Tshibangu Emirates Club Aktiv 100 / 106 40% 6 22.02.2027 -
Dramane Kamagaté USM Alger Aktiv 109 / 112 40% 2 22.02.2027 -
Sunday Williams Ghazl El Mahalla Aktiv 77 / 78 40% 2 20.02.2027 -
Abdelrahman Magdy Aswan Aktiv 80 / 79 40% 1 20.02.2027 -
Saeed Al Naqbi Al Ahli Aktiv 115 / 115 40% 3 17.02.2027 -
Brooklyn Poggenpoel Maritzburg United Aktiv 116 / 104 40% 2 17.02.2027 -
Nour El Islam Fettouhi JS Saoura Aktiv 105 / 91 40% 1 16.02.2027 -
Ahmed Bahusayn Al-Taawoun Aktiv 92 / 98 40% 1 16.02.2027 -
Wandile Duba Bidvest Wits Aktiv 103 / 101 40% 3 15.02.2027 -
Josh Woods Accrington Stanley Aktiv 102 / 94 40% 2 15.02.2027 -
Dominik Yankov Arda Aktiv 98 / 107 40% 1 15.02.2027 -
Wadhah Zaidi Hajer Aktiv 109 / 91 40% 2 10.02.2027 -
Ibrahim Cissoko Zwolle Aktiv 113 / 121 40% 1 10.02.2027 -
Denis Rubanov Dinamo Stavropol Aktiv 76 / 79 40% 1 05.02.2027 -
Miguel Falé Pacos de Ferreira Aktiv 99 / 105 40% 1 05.02.2027 -
Teboho Tau Ajax Cape Town Aktiv 106 / 108 40% 3 04.02.2027 -
Haman Mandjan Al-Ra'ed Aktiv 106 / 100 40% 1 04.02.2027 -
Kane Drummond Oldham Athletic Aktiv 109 / 94 40% 3 03.02.2027 -
Dmitry Tsypchenko Torpedo Moscow Aktiv 102 / 107 40% 1 03.02.2027 -
Abdulmalik Al-Jaber Al-Nassr Aktiv 94 / 97 40% 3 27.01.2027 -
Daniel Phillips Stevenage Aktiv 120 / 104 40% 1 27.01.2027 -
Oussama Darfalou Olympique Akbou Aktiv 98 / 102 55% 1 25.01.2027 -
Daniel Kyerewaa Reading Aktiv 119 / 124 40% 2 23.01.2027 -
Siyanda Ndlovu Hearts of Oak Aktiv 127 / 111 40% 1 23.01.2027 -
Csanád Vilmos Dénes Debrecen Aktiv 105 / 117 40% 1 19.01.2027 -
Midana Cassamá Portimonense Aktiv 95 / 99 40% 1 19.01.2027 -
Saeed Baattia Al-Fateh Aktiv 103 / 94 40% 1 12.01.2027 -
Ahmed Al-Ghamdi Al-Ittihad Aktiv 101 / 103 40% 1 12.01.2027 -
Velemseni Ndwandwe Golden Arrows Aktiv 98 / 103 40% 2 29.12.2026 -
Abdulrahman Al-Harthi Al-Ta'ee Aktiv 97 / 97 40% 1 29.12.2026 -
Omar Al-Ruwaili Najran Aktiv 94 / 91 40% 1 28.12.2026 -
José Bica Leixões Aktiv 86 / 99 40% 1 27.12.2026 -
Valentín Vada Damac Aktiv 126 / 122 40% 1 26.12.2026 -
Sultan Mandash Al-Hilal Aktiv 105 / 113 40% 1 23.12.2026 -
Ahmed Al-Juwaid Al-Orobah Aktiv 88 / 89 40% 1 22.12.2026 -
Jean Charles Ahoua Al-Faisaly Aktiv 112 / 116 40% 1 20.12.2026 -
Thabo Nodada Maritzburg United Aktiv 112 / 110 40% 1 20.12.2026 -
Saeed Al-Hamsal Al-Khaleej Aktiv 92 / 101 40% 2 19.12.2026 -
Abdullah Al-Yousif Al-Ra'ed Aktiv 93 / 103 40% 2 19.12.2026 -
Moteb Al-Harbi Al-Hilal Aktiv 127 / 125 40% 1 17.12.2026 -
Goodman Mosele Chippa United Aktiv 112 / 103 40% 1 17.12.2026 -
José Martínes CSKA 1948 Aktiv 95 / 100 40% 1 16.12.2026 -
Ante Roguljić Diosgyor Aktiv 102 / 121 40% 1 15.12.2026 -
Juanjo Narváez Al-Ra'ed Aktiv 119 / 116 40% 1 14.12.2026 -
Erick Ngcobo Black Aces Aktiv 109 / 110 40% 1 13.12.2026 -
Ousmane Camara Sharjah Aktiv 113 / 118 40% 4 11.12.2026 -
Hamed Al-Ghamdi Al-Wehda Aktiv 122 / 113 40% 1 10.12.2026 -
Bernardo Folha Al Wahda Aktiv 105 / 111 40% 2 09.12.2026 -
Agustín Ramírez Inter Aktiv 108 / 107 40% 1 09.12.2026 -
Thabang Matuludi Polokwane City Aktiv 113 / 104 40% 1 08.12.2026 -
Brahima Diarra Al Wahda Aktiv 125 / 109 40% 1 08.12.2026 -
Saviour Godwin Baniyas Aktiv 142 / 117 40% 1 07.12.2026 -
Renato Júnior Al Wasl Aktiv 133 / 118 40% 2 03.12.2026 -
Johnson Amuzu Berekum Chelsea Aktiv 84 / 99 40% 1 03.12.2026 -
Firas Ben Larbi Sharjah Abgelehnt 114 / 121 40% 1 30.11.2026 Mehr Infos nötig
Kaku Al Ain Aktiv 122 / 114 40% 1 29.11.2026 -
Leandrinho Sharjah Aktiv 108 / 111 40% 1 28.11.2026 -
Luther Zwane Platinum Stars Aktiv 103 / 114 40% 1 26.11.2026 -
Mouhameth Diop Al Fujairah Aktiv 87 / 87 40% 1 26.11.2026 -
Facundo Kruspzky Al Wahda Aktiv 118 / 126 40% 2 25.11.2026 -
Morad Khodari Al-Wehda Aktiv 96 / 84 40% 2 25.11.2026 -
Alfredo Garcia La Equidad Aktiv 166 / 148 40% 1 19.11.2026 -
Jason Al-Fayha Aktiv 118 / 126 40% 1 19.11.2026 -
Suhail Al-Noobi Baniyas Aktiv 98 / 108 40% 1 17.11.2026 -
Alfa Semedo Al-Fayha Aktiv 131 / 107 40% 1 17.11.2026 -
Faisal Al-Abdulwahed Al-Fateh Aktiv 80 / 86 40% 2 15.11.2026 -
Trezeguet Al-Riyadh Aktiv 142 / 135 40% 1 13.11.2026 -
Lebogang Zwane Black Aces Aktiv 96 / 98 40% 1 13.11.2026 -
Isaac Success Al Shaab Aktiv 118 / 117 40% 1 10.11.2026 -
Bruno Al Jazira Aktiv 128 / 121 40% 3 07.11.2026 -
Houssemeddine Ghacha USM Alger Aktiv 122 / 116 40% 1 07.11.2026 -
Mfundo Vilakazi Kaizer Chiefs Aktiv 104 / 116 40% 1 06.11.2026 -
Mohamed Kanno Al-Hilal Aktiv 129 / 134 40% 1 04.11.2026 -
Mohammad Javad Hosseinnejad Dinamo Makhachkala Aktiv 104 / 105 40% 1 04.11.2026 -
Robin Gonzalez HNK Vukovar 1991 Aktiv 113 / 122 40% 1 04.11.2026 -
Jordhy Thompson Orenburg Aktiv 118 / 118 40% 1 03.11.2026 -
João Moreira Al Nasr Aktiv 96 / 113 40% 1 03.11.2026 -
Nabil Alioui Damac Aktiv 96 / 100 40% 1 31.10.2026 -
Jorge Padilla Cherno More Aktiv 117 / 103 40% 1 30.10.2026 -
Shota Shekiladze Dila Aktiv 110 / 122 40% 1 30.10.2026 -
Mohanad Ali Dibba Aktiv 127 / 116 40% 1 28.10.2026 -
Youssef Hassan Al Shabab Aktiv 123 / 121 40% 3 27.10.2026 -
Saleh Abu Al-Shamat Al-Ahli Aktiv 132 / 108 40% 1 27.10.2026 -
Vyacheslav Grulev Nizhniy Novgorod Abgelehnt 120 / 119 40% 1 25.10.2026 Mehr Infos nötig
Hernán Luna NK Domzale Aktiv 102 / 108 40% 1 23.10.2026 -
Albert Amoah Hajer Aktiv 98 / 96 40% 1 20.10.2026 -
Radek Šiler Podbrezova Aktiv 114 / 121 40% 1 19.10.2026 -
Celso Sidney Cherno More Aktiv 90 / 101 40% 1 18.10.2026 -
Kevin Agudelo Al Nasr Aktiv 130 / 127 40% 1 18.10.2026 -
Berna CSKA 1948 Aktiv 126 / 120 40% 1 16.10.2026 -
Erik Al Ahli Aktiv 119 / 107 40% 1 15.10.2026 -
Aiman Yahya Al-Nassr Aktiv 110 / 113 40% 1 13.10.2026 -
Ibrahim Bayesh Al Dhafra Aktiv 117 / 131 40% 1 13.10.2026 -
Mohammed Rabii Al Jazira Aktiv 119 / 110 40% 1 11.10.2026 -
Abdoulaye Touré Al Nasr Aktiv 109 / 101 40% 1 10.10.2026 -
Richard Akonnor Al Jazira Aktiv 123 / 120 40% 1 07.10.2026 -
Zayed Sultan Al Nasr Aktiv 97 / 118 40% 1 07.10.2026 -
Mohammad Ghorbani Al Wahda Aktiv 91 / 111 40% 1 06.10.2026 -